Hourly Data Report for October 04, 2017

All times are specified in Local Standard Time (LST). Add 1 hour to adjust for Daylight Saving Time where and when it is observed.

HOPE A
BRITISH COLUMBIA

49°22'06.000" N
121°29'53.000" W
39.00 m
1113542
71187
YHE

Download Data

Hourly Data (October 2017)
Hourly Data Report for October 4, 2017
Temp Definition
°C
Dew Point Temp Definition
°C
Rel Hum Definition
%
Wind Dir Definition
10's deg

Wind Spd Definition
km/h
Visibility Definition
km
Stn Press Definition
kPa
Hmdx Definition


Wind Chill Definition


Weather Definition


TIME
00:00 Legend Double Dagger 10.1 1.7 56 6 11 16.1 102.10     LegendNANA
01:00 Legend Double Dagger 9.7 1.6 57 10 17 16.1 102.14     LegendNANA
02:00 Legend Double Dagger 9.0 1.1 58 6 11 16.1 102.16     LegendNANA
03:00 Legend Double Dagger 8.5 0.6 57 8 17 16.1 102.13     LegendNANA
04:00 Legend Double Dagger 7.7 0.4 60 9 15 16.1 102.12     LegendNANA
05:00 Legend Double Dagger 8.1 -0.3 55 9 18 16.1 102.08     LegendNANA
06:00 Legend Double Dagger 6.8 -0.2 61 7 11 16.1 102.08     LegendNANA
07:00 Legend Double Dagger 7.2 -0.6 58 9 15 16.1 102.10     LegendNANA
08:00 Legend Double Dagger 8.8 -1.7 48 9 18 16.1 102.11     LegendNANA
09:00 Legend Double Dagger 11.6 -0.6 43 8 11 16.1 102.05     LegendNANA
10:00 Legend Double Dagger 13.1 -1.1 37 10 15 14.5 101.95     LegendNANA
11:00 Legend Double Dagger 15.8 -2.5 28 10 13 16.1 101.84     LegendNANA
12:00 Legend Double Dagger 17.8 -2.1 26 6 8 16.1 101.74     LegendNANA
13:00 Legend Double Dagger 19.5 -3.0 22 10 13 16.1 101.63     LegendNANA
14:00 Legend Double Dagger 21.1 -1.9 21 14 11 16.1 101.54     LegendNANA
15:00 Legend Double Dagger 20.1 1.3 28 26 11 16.1 101.54     LegendNANA
16:00 Legend Double Dagger 15.6 4.3 47 23 11 16.1 101.53     LegendNANA
17:00 Legend Double Dagger 14.0 4.0 51 23 11 16.1 101.56     LegendNANA
18:00 Legend Double Dagger 13.1 3.8 53 24 5 16.1 101.62     LegendNANA
19:00 Legend Double Dagger 10.2 4.7 69 LegendMM 4 16.1 101.68     LegendNANA
20:00 Legend Double Dagger 10.5 4.7 67 LegendMM 4 16.1 101.73     LegendNANA
21:00 Legend Double Dagger 11.1 3.9 61 9 13 16.1 101.74     LegendNANA
22:00 Legend Double Dagger 10.5 3.4 61 7 13 16.1 101.76     LegendNANA
23:00 Legend Double Dagger 9.4 3.4 66 8 13 16.1 101.78     LegendNANA

Notes on Data Quality.

Legend

  • E = Estimated
  • M = Missing
  • NA = Not Available
  • ‡ = Partner data that is not subject to review by the National Climate Archives
Date modified: